This demonstration page uses our WeatherBlox Daily Observations layout. Learn more.

Left ArrowRight Arrow

41.86663, -103.66717

Hourly Observations for November 29, 2022

Temp ( °F °C ) Dew Point ( °F °C ) Humidity (%) Winds ( mph kmh ) Pressure ( in mb ) Visibility ( mi km ) Precip ( " mm )
12:24 am 00:24 Cloudy with Light Snow 22 -5.6 17 -8.3 81 81 NE 7 11 29.89 1012 2 3 0.01 0.25
12:45 am 00:45 Cloudy with Light Snow 22 -5.6 17 -8.3 81 81 N 3 6 29.89 1012 1 2 0.01 0.25
12:53 am 00:53 Partly Cloudy with Isolated Snow Showers 22 -5.6 17 -8.3 81 81 Calm 29.75 1007 1 2 0.02 0.51
1:20 am 01:20 Cloudy with Light Snow 22 -5.6 16 -8.9 77 77 NE 10 17 29.89 1012 1 2 0.01 0.25
1:35 am 01:35 Partly Cloudy with Isolated Snow Showers 21 -6.1 17 -8.3 84 84 N 3 6 29.90 1013 1 2 0.02 0.51
1:53 am 01:53 Cloudy with Light Snow 21 -6.1 17 -8.3 84 84 N 8 13 29.76 1008 2 3 0.03 0.76
2:01 am 02:01 Cloudy with Light Snow 21 -6.1 16 -8.9 80 80 N 8 13 29.92 1013 2 3 0.01 0.13
2:35 am 02:35 Cloudy with Light Snow 20 -6.7 14 -10 77 77 N 15 24 29.95 1014 4 6 0.01 0.13
2:48 am 02:48 Cloudy with Light Snow 19 -7 14 -10 79 79 NNE 12 19 29.97 1015 2 3 0.01 0.13
2:53 am 02:53 Cloudy with Light Snow 20 -6.7 14 -10 77 77 NNE 10 17 29.80 1009 2 2 0.01 0.13
3:14 am 03:14 Partly Cloudy with Isolated Snow Showers 20 -6.7 15 -9.4 81 81 NE 6 9 29.96 1015 1 2 0.01 0.25
3:53 am 03:53 Partly Cloudy with Isolated Snow Showers 19 -7.2 14 -10 80 80 N 8 13 29.83 1010 1 2 0.03 0.76
4:11 am 04:11 Cloudy with Light Snow 19 -7.2 14 -10 80 80 NNE 8 13 29.97 1015 2 2 0.01 0.25
4:32 am 04:32 Cloudy with Light Snow 19 -7.2 14 -10 80 80 N 6 9 29.99 1016 2 3 0.01 0.25
4:39 am 04:39 Cloudy with Light Snow 19 -7.2 14 -10 80 80 N 6 9 29.99 1016 3 5 0.01 0.25
4:53 am 04:53 Cloudy with Light Snow 19 -7.2 13 -10.6 77 77 NNE 8 13 29.85 1011 4 6 0.01 0.25
5:53 am 05:53 Cloudy 18 -7.8 12 -11.1 77 77 NNE 5 7 29.87 1011 7 11 0.01 0.13
6:25 am 06:25 Cloudy with Light Snow 17 -8.3 13 -10.6 83 83 W 3 6 30.04 1017 3 4 0.01 0.13
6:53 am 06:53 Cloudy with Light Snow 18 -7.8 13 -10.6 80 80 NNW 6 9 29.90 1013 2 3 0.01 0.25
7:20 am 07:20 Cloudy with Light Snow 18 -7.8 13 -10.6 80 80 W 5 7 30.05 1018 2 2 0.01 0.13
7:35 am 07:35 Partly Cloudy with Isolated Snow Showers 18 -7.8 13 -10.6 80 80 WNW 3 6 30.05 1018 1 1 0.01 0.25
7:44 am 07:44 Cloudy with Light Snow 18 -7.8 13 -10.6 80 80 W 5 7 30.06 1018 1 2 0.01 0.25
7:53 am 07:53 Cloudy with Light Snow 18 -7.8 14 -10 84 84 W 5 7 29.94 1014 1 2 0.01 0.25
8:08 am 08:08 Cloudy with Light Snow 19 -7.2 14 -10 80 80 WNW 6 9 30.06 1018 3 5 0.01 0.13
8:19 am 08:19 Cloudy 19 -7.2 14 -10 80 80 WNW 8 13 30.06 1018 8 13 0.01 0.13
8:53 am 08:53 Cloudy 20 -6.7 13 -10.6 74 74 WNW 8 13 29.95 1014 10 16 0.01 0.13
9:53 am 09:53 Cloudy 19 -7.2 6 -14.4 56 56 NNW 16 26 29.98 1015 10 16 0.00 0.00
10:53 am 10:53 Partly Cloudy 20 -6.7 7 -13.9 56 56 WNW 15 24 30.01 1016 10 16 0.00 0.00
11:53 am 11:53 Partly Cloudy 19 -7.2 6 -14.4 56 56 NW 15 24 30.02 1017 10 16 0.00 0.00
12:53 pm 12:53 Mostly Sunny 20 -6.7 7 -13.9 56 56 WNW 12 19 30.02 1017 10 16 0.00 0.00
1:53 pm 13:53 Partly Cloudy 19 -7.2 7 -13.9 59 59 WNW 9 15 30.04 1017 10 16 0.00 0.00
2:53 pm 14:53 Mostly Sunny 20 -6.7 7 -13.9 56 56 W 8 13 30.06 1018 10 16 0.00 0.00
3:53 pm 15:53 Sunny 18 -7.8 8 -13.3 65 65 W 7 11 30.09 1019 10 16 0.00 0.00
4:53 pm 16:53 Clear 12 -11.1 6 -14.4 76 76 WNW 5 7 30.14 1021 10 16 0.00 0.00
5:53 pm 17:53 Clear 9 -12.8 4 -15.6 79 79 NNW 5 7 30.18 1022 10 16 0.00 0.00
6:53 pm 18:53 Clear 6 -14.4 1 -17.2 79 79 NNW 3 6 30.21 1023 10 16 0.00 0.00
7:53 pm 19:53 Clear -1 -18.3 -7 -21.7 74 74 N 5 7 30.24 1024 10 16 0.00 0.00
8:53 pm 20:53 Clear -2 -18.9 -7 -21.7 78 78 NNW 7 11 30.27 1025 10 16 0.00 0.00
9:53 pm 21:53 Cloudy 3 -16.1 -2 -18.9 79 79 NW 8 13 30.29 1026 10 16 0.00 0.00
10:53 pm 22:53 Mostly Clear 4 -15.6 -1 -18.3 80 80 NNW 8 13 30.29 1026 10 16 0.00 0.00
11:53 pm 23:53 Clear 2 -16.7 -2 -18.9 83 83 NW 8 13 30.32 1027 10 16 0.00 0.00

Powered by AerisWeather